West Memphis, AR

5:28 PM CDT on September 23, 2017 (GMT -0500)
West Memphis Municipal

Weather History for KAWM - August, 2014

Change the Weather History Date:

Friday, August 15, 2014

  Actual Average Record
Temperature  
Mean Temperature 76 °F -  
Max Temperature 88 °F 90 °F 104 °F (2007)
Min Temperature 63 °F 69 °F 56 °F (1963)
Cooling Degree Days 10    
Growing Degree Days 26 (Base 50)    
Moisture  
Dew Point 64 °F    
Average Humidity 76    
Maximum Humidity 100    
Minimum Humidity 42    
Precipitation  
Precipitation 0.00 in - - ()
Sea Level Pressure  
Sea Level Pressure 30.01 in    
Wind  
Wind Speed 2 mph (East)    
Max Wind Speed 7 mph    
Max Gust Speed -    
Visibility 7 miles    
Events      
Averages and records for this station are not official NWS values.
T = Trace of Precipitation, MM = Missing Value Source: NWS Daily Summary

Daily Weather History Graph

Daily Weather History Graph

Search for Another Location

Airport or City:

Trip Planner

Search our weather history database for the weather conditions in past years. The results will help you decide how hot, cold, wet, or windy it might be!

Date:

Astronomy

Aug. 15, 2014 Rise Set
Actual Time 6:20 AM CDT 7:49 PM CDT
Civil Twilight 5:53 AM CDT 8:16 PM CDT
Nautical Twilight 5:21 AM CDT 8:48 PM CDT
Astronomical Twilight 4:47 AM CDT 9:22 PM CDT
Moon 11:07 PM CDT (8/15) 11:49 AM CDT (8/15)
Length of Visible Light 14h 22m
Length of Day
13h 28m
Waning Gibbous, 69% of the Moon is Illuminated
Aug 15
Waning Gibbous
Aug 17
Last Quarter
Aug 25
New
Sep 2
First Quarter
Sep 8
Full

Hourly Weather History & Observations

Time (CDT) Temp. Heat Index Dew Point Humidity Pressure Visibility Wind Dir Wind Speed Gust Speed Precip Events Conditions
12:53 AM 66.0 °F - 64.9 °F 96% 30.01 in 10.0 mi Calm Calm - N/A   Clear
1:53 AM 64.9 °F - 64.9 °F 100% 30.00 in 8.0 mi Calm Calm - N/A   Clear
2:53 AM 64.9 °F - 64.9 °F 100% 30.00 in 8.0 mi Calm Calm - N/A   Clear
3:53 AM 64.0 °F - 64.0 °F 100% 30.01 in 4.0 mi Calm Calm - N/A   Clear
4:11 AM 64.9 °F - 64.0 °F 97% 30.02 in 2.5 mi Calm Calm - N/A   Clear
4:46 AM 63.0 °F - 62.1 °F 97% 30.02 in 1.8 mi Calm Calm - N/A   Clear
4:53 AM 63.0 °F - 62.1 °F 97% 30.01 in 1.5 mi Calm Calm - N/A   Clear
4:56 AM 63.0 °F - 62.1 °F 97% 30.03 in 3.0 mi Calm Calm - N/A   Clear
5:53 AM 63.0 °F - 63.0 °F 100% 30.02 in 5.0 mi Calm Calm - N/A   Clear
6:36 AM 63.0 °F - 63.0 °F 100% 30.04 in 2.5 mi Calm Calm - N/A   Clear
6:43 AM 64.0 °F - 64.0 °F 100% 30.05 in 4.0 mi Calm Calm - N/A   Clear
6:53 AM 64.0 °F - 64.0 °F 100% 30.04 in 4.0 mi Calm Calm - N/A   Clear
7:53 AM 70.0 °F - 69.1 °F 97% 30.06 in 6.0 mi South 3.5 mph - N/A   Clear
9:53 AM 79.0 °F - 64.0 °F 60% 30.06 in 10.0 mi South 4.6 mph - N/A   Clear
10:53 AM 82.0 °F 83.8 °F 64.9 °F 56% 30.06 in 10.0 mi SSW 4.6 mph - N/A   Clear
11:53 AM 84.0 °F 84.9 °F 63.0 °F 49% 30.04 in 10.0 mi Variable 3.5 mph - N/A   Clear
12:53 PM 84.0 °F 85.4 °F 64.0 °F 51% 30.02 in 10.0 mi West 5.8 mph - N/A   Clear
1:53 PM 87.1 °F 87.8 °F 63.0 °F 44% 30.01 in 10.0 mi NW 6.9 mph - N/A   Clear
2:53 PM 86.0 °F 87.6 °F 64.9 °F 49% 29.99 in 10.0 mi NW 6.9 mph - N/A   Scattered Clouds
3:53 PM 87.1 °F 88.3 °F 64.0 °F 46% 29.98 in 10.0 mi North 4.6 mph - N/A   Clear
4:53 PM 88.0 °F 88.4 °F 62.1 °F 42% 29.97 in 10.0 mi Variable 5.8 mph - N/A   Clear
5:53 PM 86.0 °F 86.8 °F 63.0 °F 46% 29.96 in 10.0 mi East 6.9 mph - N/A   Partly Cloudy
6:53 PM 84.0 °F 84.9 °F 63.0 °F 49% 29.96 in 10.0 mi NE 3.5 mph - N/A   Clear
7:53 PM 78.1 °F - 64.9 °F 64% 29.95 in 10.0 mi ENE 3.5 mph - N/A   Clear
8:53 PM 78.1 °F - 63.0 °F 60% 29.96 in 10.0 mi East 5.8 mph - N/A   Clear
9:53 PM 72.0 °F - 66.0 °F 81% 29.97 in 10.0 mi South 3.5 mph - N/A   Clear
10:53 PM 71.1 °F - 66.0 °F 84% 29.97 in 10.0 mi Calm Calm - N/A   Clear